Location: Songkhla
(7.2000°N, 100.6000°E)
Time: 09:14:13
(UTC+07:00)

ISS - Visible Passes

Search period start: 19 December 2018 00:00
Search period end: 29 December 2018 00:00
Orbit: 401 x 408 km, 51.6° (Epoch: 19 December)

Date Brightness Start Highest point End Pass type
(mag) Time Alt. Az. Time Alt. Az. Time Alt. Az.
20 Dec -0.1 05:18:18 10° SE 05:19:20 11° SE 05:20:22 10° ESE visible
21 Dec -3.8 06:00:12 10° SW 06:03:26 62° NW 06:06:41 10° NNE visible
22 Dec -2.4 05:08:11 10° SSW 05:11:19 41° SE 05:14:25 10° NE visible
23 Dec -0.7 04:19:30 15° ESE 04:19:30 15° ESE 04:21:13 10° E visible
23 Dec -2.1 05:53:19 10° W 05:55:27 16° NW 05:57:35 10° N visible
24 Dec -1.4 05:05:55 13° NNE 05:05:55 13° NNE 05:06:22 10° NNE visible
